Location: Sternwarte auf dem Internationalen Platz Vogelsang IP
(50.5721°N, 6.4398°E)
Time: 17:45:28
(UTC+01:00)

Transit 2A Rocket - Pass Details

Date: 11 December 2025
Orbit: 581 x 903 km, 66.7° (Epoch: 16 January)

Event Time Altitude Azimuth Distance (km) Brightness Sun altitude
Rises 11:24:31 0° 252° (WSW) 3,364 8.4 15.1°
Reaches altitude 10° 11:27:10 10° 262° (W) 2,476 7.6 15.2°
Maximum altitude 11:32:21 33° 326° (NW) 1,446 6.1 15.4°
Drops below altitude 10° 11:37:46 10° 29° (NNE) 2,586 7.3 15.6°
Sets 11:40:36 0° 39° (NE) 3,535 8.1 15.7°
